Location: Cannifist
(18.2333°N, 63.0167°W)
Time: 09:15:52
(UTC+00:00)

CSL-04 Debris - Pass Details

Date: 27 February 2020
Orbit: 826 x 849 km, 99.0° (Epoch: 07 April)

Event Time Altitude Azimuth Distance (km) Brightness Sun altitude
Rises 22:49:33 0° 156° (SSE) 3,371 7.1 -8.4°
Reaches altitude 10° 22:51:57 10° 151° (SSE) 2,442 6.4 -9.0°
Maximum altitude 22:57:12 54° 75° (ENE) 1,014 4.3 -10.2°
Drops below altitude 10° 23:02:30 10° 359° (N) 2,460 6.6 -11.5°
Sets 23:04:55 0° 355° (N) 3,399 7.4 -12.0°
